GFSNIL_sfc_thetae_330.txt.gz
Theta_e
340 338 339 339 338 337 334 332 331 329 328 327 326 325 324 324 323 322 322 322 322 323
336 335 335 334 334 333 332 329 326 326 324 324 325 326 324 324 323 322 321 321 323 320
335 336 334 334 331 330 326 325 323 322 323 324 326 326 325 323 323 319 320 323 328 326
333 332 333 331 328 325 323 321 320 320 321 322 323 323 321 323 324 325 324 325 326 324
330 329 328 327 324 321 319 319 320 321 322 322 322 321 322 324 324 323 321 321 321 322
327 326 324 322 321 320 320 319 320 321 321 320 320 320 321 321 320 319 319 321 322 323
325 325 326 325 325 322 320 319 320 320 319 318 319 320 319 318 317 318 319 321 322 323
325 326 326 324 323 321 320 318 318 318 317 317 318 317 317 317 317 318 318 319 321 323
325 325 324 322 320 320 319 318 318 317 317 316 317 321 323 320 319 319 318 318 320 320
325 322 320 320 318 317 316 316 316 316 316 317 319 320 322 325 325 322 321 319 319 319
322 320 319 318 316 315 315 316 317 318 318 319 321 320 320 323 326 324 323 322 322 321
322 320 319 317 316 316 317 317 318 319 320 319 321 318 318 321 323 322 322 323 323 321
323 322 320 319 318 318 319 319 320 321 321 320 321 317 315 318 321 320 320 322 322 320
323 321 321 321 320 320 320 320 320 319 320 320 319 320 314 314 320 320 320 320 321 322

GFSNIL_sfc_thetae_336.txt.gz
Theta_e
350 344 347 344 345 345 344 342 342 341 339 337 337 338 338 339 342 343 340 337 338 336
347 342 340 337 338 339 340 339 337 334 332 334 336 337 339 336 335 335 335 335 337 335
339 336 335 336 336 339 341 338 335 333 331 331 331 332 334 332 334 334 333 334 336 336
334 333 338 339 339 339 338 338 332 330 331 330 330 331 332 331 330 331 333 336 336 335
340 340 340 344 340 342 339 336 330 330 330 331 331 333 332 331 332 332 331 333 334 333
338 338 338 337 339 334 326 327 330 329 333 334 333 333 334 334 334 333 332 333 333 332
334 333 331 331 329 328 329 328 334 335 334 335 334 333 333 333 332 331 330 332 333 333
333 333 331 332 332 332 332 335 335 335 334 333 333 332 331 331 331 330 328 329 331 332
332 332 332 333 333 333 333 334 335 332 330 332 330 323 324 327 325 327 328 328 329 329
333 333 332 334 334 333 333 331 330 328 328 327 327 322 323 325 330 329 329 330 329 328
333 331 333 332 333 334 331 330 329 328 329 329 330 323 322 325 333 332 333 332 332 332
334 331 331 332 333 331 329 328 330 331 333 333 333 322 320 325 332 331 333 333 334 334
334 335 333 332 330 331 332 331 329 332 334 330 332 320 319 322 329 329 328 332 333 328
335 333 331 331 331 333 332 332 332 331 333 334 333 333 317 316 329 327 327 328 329 331

GFSNIL_sfc_thetae_339.txt.gz
Theta_e
354 356 354 345 345 344 346 346 347 349 349 347 345 345 342 339 341 345 344 344 343 339
348 346 343 342 340 338 341 342 344 341 338 337 337 337 338 341 343 342 341 338 340 340
346 341 339 336 334 336 341 342 340 340 336 335 336 339 339 337 338 336 335 337 339 341
339 336 336 338 339 340 340 342 340 339 338 335 335 335 334 334 335 335 337 338 338 336
341 341 340 341 341 341 342 342 338 338 335 335 334 333 333 331 330 331 332 334 336 334
344 341 341 341 341 344 342 340 337 335 334 334 336 335 334 336 336 336 336 337 338 335
341 342 342 341 338 338 337 334 331 333 335 338 338 338 338 337 337 336 334 335 335 335
334 334 333 332 332 332 331 333 335 336 337 337 337 336 337 336 335 334 332 333 334 333
331 330 331 332 331 332 333 333 337 336 336 335 336 329 328 332 332 332 331 329 330 331
332 330 331 332 333 332 334 336 335 336 335 335 332 326 325 326 330 329 329 330 330 329
334 331 331 333 334 336 336 335 334 332 332 331 329 322 322 324 329 332 332 332 332 332
333 331 332 335 333 336 335 332 331 331 331 331 332 321 321 324 329 330 331 332 334 332
337 334 333 335 335 336 333 332 330 332 334 331 335 319 319 323 328 328 327 333 333 328
337 337 337 338 335 334 334 336 334 334 335 335 333 332 317 317 328 326 327 326 328 330

GFSNIL_sfc_thetae_342.txt.gz
Theta_e
345 347 343 338 336 338 336 341 342 344 345 348 345 345 345 342 342 340 342 344 342 341
348 344 338 339 337 336 337 338 342 343 343 339 337 337 338 340 338 337 338 338 341 342
350 339 337 336 335 334 335 339 340 340 338 336 335 335 337 337 337 333 334 337 338 336
344 339 336 336 337 336 338 339 340 340 338 336 335 336 336 338 335 336 338 340 336 336
343 341 338 339 337 338 340 342 340 340 338 335 334 336 334 332 333 335 334 335 339 336
345 342 340 341 341 341 342 339 338 338 334 334 333 333 335 334 333 334 336 337 337 337
340 344 342 342 343 344 339 337 336 336 335 334 336 336 335 337 338 338 337 337 337 337
341 342 345 342 336 336 333 334 335 334 333 335 338 337 339 339 338 337 337 337 338 337
334 335 335 332 331 330 331 334 335 335 335 337 335 332 337 337 334 336 336 334 336 336
330 330 330 331 330 330 330 332 335 335 337 335 336 330 330 327 334 333 333 332 333 330
330 330 331 331 331 335 335 333 335 334 337 336 330 325 324 324 331 336 336 335 335 334
332 332 331 332 331 336 335 336 333 334 336 335 328 320 321 323 326 328 334 335 335 336
333 332 331 333 335 337 336 333 333 333 334 332 335 317 318 322 327 327 329 332 334 330
337 334 335 338 336 334 334 335 335 333 334 336 336 326 316 317 329 327 327 327 328 331

GFSNIL_sfc_thetae_345.txt.gz
Theta_e
341 338 342 336 337 337 336 338 340 340 341 342 342 340 339 337 337 336 336 335 336 332
337 338 336 335 336 337 337 338 339 338 339 339 338 337 337 335 337 336 337 337 335 334
342 339 338 338 333 332 331 335 337 337 336 335 335 334 334 334 334 332 331 331 331 331
342 340 338 330 331 331 333 334 335 335 333 332 331 332 333 333 331 329 328 330 328 329
342 339 331 332 331 330 332 333 336 335 334 332 332 332 330 329 329 328 326 328 329 327
338 336 332 333 332 332 333 336 336 334 331 330 329 328 328 327 326 327 327 327 329 328
339 337 336 336 335 335 334 333 333 333 330 329 329 329 328 329 326 327 330 329 330 330
339 336 338 336 337 336 335 336 334 332 330 330 331 332 328 329 330 331 330 328 329 328
336 339 338 335 334 333 333 333 332 331 328 328 333 332 334 334 332 331 330 326 326 327
331 331 331 331 330 330 330 331 331 331 332 332 332 329 331 335 331 329 325 324 323 325
330 329 330 330 329 328 329 329 331 331 332 329 332 328 327 327 320 324 324 324 323 322
330 329 329 327 328 331 331 330 331 331 331 331 325 322 322 319 316 317 320 325 325 324
330 330 328 329 330 328 331 330 331 329 329 326 317 317 317 317 314 312 316 321 323 328
331 330 330 331 328 328 329 329 328 324 324 323 325 316 314 315 315 318 318 320 321 324

GFSNIL_sfc_thetae_351.txt.gz
Theta_e
334 335 336 336 339 343 339 339 340 340 340 340 341 340 340 339 339 339 338 338 336 336
336 337 336 334 338 337 336 337 338 338 340 340 339 338 338 336 336 336 336 336 335 335
338 336 334 336 336 336 336 337 335 334 334 335 336 336 336 336 336 335 334 334 334 332
337 334 333 336 335 335 333 333 332 333 335 335 335 333 332 332 333 332 331 329 331 330
335 334 334 333 334 335 333 332 331 332 332 330 329 329 329 329 332 330 327 327 326 323
338 336 333 330 331 332 332 330 329 331 331 329 327 326 327 329 328 326 326 326 325 325
341 337 334 328 327 332 333 331 329 331 330 329 328 328 327 326 324 325 325 327 328 328
342 339 338 332 332 332 332 330 330 331 329 329 328 328 325 325 322 321 323 327 329 329
336 336 334 333 332 331 331 331 331 332 330 327 331 330 329 326 322 322 325 326 326 327
336 334 334 334 333 332 332 333 331 332 331 330 329 329 328 330 325 329 329 327 325 325
333 334 333 334 333 332 333 333 333 332 332 330 330 327 325 328 330 330 330 328 326 323
330 330 330 329 328 330 331 331 331 331 330 329 330 324 323 325 328 328 326 324 321 320
330 329 329 328 329 329 330 330 331 330 331 329 330 321 320 323 322 320 319 319 319 323
325 325 325 328 329 329 328 328 328 329 329 330 328 324 316 317 319 316 313 314 315 319

GFSNIL_sfc_thetae_357.txt.gz
Theta_e
355 350 349 347 348 341 343 349 356 354 355 346 354 351 347 346 339 342 339 337 336 336
353 353 351 351 351 346 348 347 352 354 354 354 353 348 347 343 340 340 339 337 337 338
350 351 351 351 350 349 350 352 351 350 351 349 349 345 346 343 341 341 341 341 339 340
351 350 349 348 348 348 350 350 347 348 348 345 344 342 342 339 340 340 341 341 341 341
349 350 350 347 345 348 347 347 346 347 347 341 337 342 340 338 339 339 340 341 340 337
345 345 344 345 345 342 342 341 340 339 340 339 336 334 336 337 339 339 339 341 341 341
342 343 344 345 343 341 337 334 335 339 339 336 335 335 335 335 337 338 339 340 339 339
343 342 346 340 339 333 333 335 337 336 334 334 335 333 332 334 334 335 337 337 339 339
341 341 342 337 331 330 332 333 336 338 335 332 336 331 331 333 334 335 335 336 337 337
340 340 342 337 332 333 333 334 334 336 337 337 338 329 329 332 335 334 333 335 335 334
340 339 339 337 333 334 335 334 332 332 334 334 335 328 325 329 334 332 332 334 336 335
339 337 339 337 335 335 334 333 334 333 333 336 336 324 323 326 332 332 333 334 335 334
339 336 333 335 336 335 337 337 337 336 334 333 336 322 321 325 333 332 332 332 334 328
338 336 336 338 334 332 332 332 334 335 334 334 334 330 319 319 333 333 329 331 330 329

GFSNIL_sfc_thetae_360.txt.gz
Theta_e
361 356 356 359 356 354 352 354 363 364 355 360 360 357 358 353 356 356 350 348 340 339
360 359 357 361 362 355 361 355 359 359 359 359 358 358 359 354 353 351 352 347 344 340
360 361 361 360 358 358 358 357 356 355 356 358 358 358 357 353 354 351 349 347 344 341
359 359 359 356 357 356 357 356 355 356 356 354 354 355 353 352 348 346 345 341 342 339
356 355 354 353 354 354 353 354 354 354 353 352 351 351 349 344 345 340 339 342 342 340
353 352 352 349 350 352 351 351 351 349 348 348 347 342 339 342 340 338 338 339 340 341
353 352 350 350 349 351 351 346 340 340 340 340 341 343 344 342 336 336 338 341 342 341
355 352 351 351 351 350 345 338 336 336 339 343 340 342 339 336 337 338 338 339 341 341
355 352 351 348 348 343 337 335 338 336 336 336 341 332 333 336 336 339 338 337 339 341
354 351 349 348 346 340 336 336 335 337 341 340 342 329 330 333 335 336 336 338 340 338
353 350 348 346 343 339 335 334 341 337 342 342 341 328 326 330 335 336 336 337 338 339
351 349 347 345 344 339 336 334 334 335 339 340 340 324 323 329 335 336 333 333 339 339
352 349 347 344 343 342 338 336 336 340 342 333 336 322 320 326 334 330 331 332 337 330
352 349 347 344 343 343 339 337 337 340 342 342 335 335 318 319 335 331 333 334 334 334